Wetbulb
70.41 70.49 70.88 71.00 70.72 70.59 70.94 71.38 71.53 71.70 72.02 71.69 72.23 72.27 71.52 72.14 72.53 72.19 72.01 71.89 71.84 71.04 70.52 70.20 70.25 70.66 70.50 70.24 70.02 69.67 68.79 67.79 65.15 66.53 69.39 70.75 69.10 66.99 68.79 71.19 69.59 67.04 66.01
70.64 70.79 71.03 71.62 71.10 70.48 70.84 70.74 71.51 71.11 71.15 72.14 71.63 72.02 71.82 72.15 72.25 72.10 71.57 73.16 71.27 70.67 71.32 70.88 70.57 71.87 69.88 70.08 69.50 69.40 69.28 69.76 67.97 65.98 67.30 67.98 68.66 67.17 68.53 69.82 69.70 67.15 64.55
70.41 70.49 70.52 70.83 70.50 70.07 71.05 70.93 71.17 70.90 71.69 71.88 72.09 71.99 72.28 72.47 72.15 72.26 72.29 72.19 71.39 71.73 71.90 70.86 70.58 70.77 69.75 69.78 69.36 69.47 69.41 70.84 69.21 68.01 65.45 67.88 69.14 69.75 68.06 68.35 65.38 63.59 63.44
70.57 70.41 69.82 69.97 69.97 70.12 70.99 71.52 70.90 70.97 71.08 71.47 72.09 72.14 72.21 71.98 71.96 71.88 72.07 72.48 72.29 72.33 71.93 71.35 71.20 70.66 69.75 69.59 70.23 69.36 70.03 68.98 66.98 65.86 65.86 66.18 67.70 68.21 68.40 65.08 66.79 65.25 61.95
68.08 67.75 67.95 69.50 70.45 71.05 71.15 71.75 72.13 71.71 71.61 71.35 71.89 71.85 71.39 71.60 70.68 69.99 71.07 71.33 71.51 70.60 70.51 70.95 71.37 71.38 69.39 68.32 69.91 69.45 68.94 67.48 66.75 65.67 64.93 65.56 64.81 65.64 65.64 66.07 65.81 67.47 65.28
67.70 67.23 66.62 66.25 68.92 70.70 71.52 71.33 71.13 71.08 69.41 69.70 70.98 70.68 69.55 66.53 63.98 66.82 68.45 68.46 68.49 69.46 69.22 69.92 70.20 68.78 68.02 66.60 66.49 66.38 67.77 66.94 65.75 65.65 64.75 64.33 64.01 65.23 65.18 64.75 65.00 65.28 64.03
67.50 68.62 67.38 65.86 65.84 70.16 69.82 69.56 70.31 70.43 69.88 70.49 69.17 66.04 62.14 62.12 62.55 64.19 65.76 65.51 66.56 67.88 67.19 67.99 69.14 67.25 67.03 65.73 63.35 63.54 63.79 63.75 64.56 64.98 64.53 65.86 64.38 64.35 62.21 64.03 64.68 63.76 64.04
65.92 66.09 66.71 65.82 67.45 69.88 68.92 68.60 68.38 67.63 68.22 67.41 67.47 62.43 59.26 56.67 58.68 59.46 64.41 65.76 68.31 66.49 64.03 65.74 64.52 59.98 57.19 60.65 64.78 66.94 64.00 59.96 59.59 61.91 65.20 64.66 62.24 59.60 59.22 60.38 61.31 63.04 64.00
65.04 65.09 65.05 67.52 69.00 68.96 67.66 66.93 66.86 67.06 66.91 66.88 63.16 59.24 56.67 55.26 57.75 58.19 63.81 67.39 65.68 61.75 59.51 59.52 61.36 57.35 55.83 56.46 61.37 63.01 65.24 61.34 58.17 59.16 58.52 57.55 57.28 57.34 60.31 61.20 58.74 58.45 60.69
65.34 64.93 65.91 66.78 67.83 67.20 66.30 65.05 64.71 63.36 60.67 58.66 57.57 56.37 56.33 56.07 54.73 55.51 60.85 64.67 64.78 59.02 58.24 58.49 57.71 56.51 54.63 54.28 54.30 57.79 59.41 62.25 60.08 64.51 59.69 58.10 57.85 59.44 59.06 58.48 57.58 55.51 56.43
66.69 68.20 67.61 66.94 65.46 63.92 62.88 62.52 60.85 59.24 57.37 56.17 54.90 54.74 54.60 54.17 53.16 53.13 54.61 60.27 62.47 61.53 60.36 59.37 57.99 55.04 52.48 51.88 52.58 54.45 56.39 57.16 58.33 59.85 63.13 63.36 61.14 59.66 60.03 57.57 55.82 55.02 54.61
64.58 63.86 63.32 63.38 63.40 61.73 60.40 59.83 58.76 57.78 56.33 54.90 53.80 52.95 53.33 53.17 53.08 52.51 52.90 53.69 58.58 59.11 58.02 57.96 57.15 54.27 51.36 52.24 53.10 53.64 53.78 55.16 57.86 58.42 59.93 61.40 62.22 59.40 58.30 55.37 54.08 54.23 55.93
63.16 62.07 61.73 61.71 61.35 60.49 59.22 58.52 57.66 57.23 56.57 55.66 54.96 54.04 53.75 54.60 54.48 53.27 54.11 54.21 54.99 53.94 54.23 54.42 52.98 51.20 51.56 53.56 54.83 55.99 54.51 58.15 57.48 57.43 56.93 55.51 57.49 58.52 58.07 57.73 57.37 56.28 55.70
61.61 61.82 61.89 61.13 60.85 61.19 61.05 60.29 59.10 58.32 57.51 56.81 55.81 55.08 54.50 54.78 55.66 56.53 55.21 53.93 51.22 48.70 49.35 49.21 52.97 54.56 53.71 53.20 53.81 55.01 55.62 55.37 54.18 54.49 54.23 53.13 52.66 53.36 53.85 55.26 53.46 52.12 52.45
58.88 58.76 58.90 58.38 56.71 53.15 49.06 54.15 55.10 51.88 56.69 58.20 56.67 56.15 55.46 54.66 54.25 49.34 47.86 45.98 44.81 43.80 45.55 49.11 47.83 49.58 50.48 51.96 54.57 55.40 56.14 54.65 52.34 53.76 53.64 51.68 50.94 50.71 49.86 50.64 49.10 47.74 46.76
58.48 58.74 58.42 58.06 56.79 55.22 52.49 48.35 45.02 45.29 45.38 47.05 50.59 52.79 49.73 49.24 43.72 41.81 40.88 40.87 41.36 42.93 45.48 46.72 47.04 48.19 48.64 50.15 52.11 52.95 54.46 55.17 52.50 52.66 51.72 51.96 50.46 49.12 48.93 48.76 47.91 46.90 46.13
56.77 56.52 56.17 55.87 55.71 54.37 53.51 52.81 50.18 44.87 43.40 42.70 43.08 45.38 45.88 44.21 41.33 40.18 39.58 40.14 41.82 44.17 46.34 46.64 48.48 50.48 50.03 50.81 51.28 51.72 52.00 53.12 52.75 52.54 49.04 48.29 48.15 47.61 46.66 45.78 45.06 45.95 45.68
51.94 51.58 52.18 51.49 51.39 51.40 50.77 49.18 47.56 45.67 44.73 44.21 42.31 42.35 41.46 40.71 39.68 39.14 39.25 42.19 46.56 46.31 45.99 48.07 49.20 49.61 50.29 50.44 50.51 51.85 52.65 51.12 50.46 49.56 49.43 49.02 48.53 47.34 45.79 45.67 46.18 45.33 44.61
53.85 53.03 52.77 52.56 51.45 50.84 50.01 48.65 47.63 47.50 46.27 45.12 42.65 42.93 41.02 39.77 38.93 38.68 39.32 44.49 46.00 46.80 47.89 48.54 48.77 49.05 49.20 49.33 49.41 51.45 51.93 51.03 50.83 49.82 49.31 49.27 49.85 47.76 44.54 44.17 44.23 44.51 43.39
55.28 56.25 55.22 54.18 53.95 53.82 52.59 51.97 51.68 50.05 49.57 47.77 46.23 46.45 43.55 42.24 46.55 47.32 44.76 45.51 46.31 47.10 48.30 49.87 50.61 49.83 49.51 49.83 49.72 49.27 49.86 48.12 47.52 47.45 47.20 46.98 47.15 45.57 44.66 44.21 43.70 43.40 42.54
51.14 51.51 53.42 51.95 53.80 55.32 54.17 53.30 52.75 52.66 52.35 51.88 50.36 50.06 44.67 47.49 48.79 49.67 49.62 49.89 50.36 50.98 50.27 49.49 48.36 48.85 49.83 50.40 50.92 50.87 49.92 49.07 49.12 48.38 47.34 46.47 48.18 45.93 44.59 44.42 43.65 43.35 42.65
50.55 49.81 49.84 50.31 49.14 48.93 47.86 47.80 49.05 49.76 50.40 51.66 50.00 48.05 44.55 47.42 48.64 49.00 49.60 49.93 50.16 50.19 49.97 49.39 49.38 49.70 50.62 50.92 50.35 49.72 49.29 48.65 48.02 48.43 48.83 48.90 47.62 46.25 44.36 43.57 43.59 42.93 43.02
48.83 48.39 48.64 47.25 47.46 48.74 48.98 48.43 47.61 48.59 49.08 49.47 49.44 49.74 50.34 49.19 48.98 48.87 49.60 49.48 48.81 48.10 48.66 49.60 49.34 48.95 49.44 49.88 49.23 48.07 47.48 47.66 47.82 47.29 46.56 44.13 43.22 44.93 44.54 43.08 43.53 43.34 43.28
48.67 49.15 48.54 46.82 47.80 47.74 46.91 46.15 46.62 46.68 49.05 49.18 49.46 49.03 48.47 48.29 48.38 48.62 48.65 48.86 48.96 48.55 48.62 48.81 48.57 47.78 47.11 45.95 47.07 48.12 46.70 47.13 47.30 47.02 47.72 44.06 44.59 44.71 44.86 44.71 44.69 44.94 44.67
48.50 48.30 47.16 47.48 48.09 46.83 46.31 45.80 46.35 46.73 47.62 48.27 48.00 47.68 47.52 47.61 47.96 48.54 48.34 48.02 47.84 47.88 47.33 47.73 47.57 45.81 45.87 45.81 44.21 41.85 36.14 34.85 43.79 41.76 44.29 45.13 44.59 43.98 43.89 43.89 45.31 44.67 42.95
48.16 48.94 47.99 47.52 46.03 45.96 45.92 45.63 45.93 46.30 46.77 47.01 46.44 45.87 46.61 46.64 47.09 47.53 47.05 47.44 47.61 47.51 46.93 47.63 47.11 45.15 44.07 43.18 39.83 34.91 31.93 33.55 38.68 38.13 46.23 46.13 45.17 44.30 44.26 43.94 43.58 42.81 42.68
MSLP
1013.18 1013.72 1014.20 1014.48 1014.78 1015.26 1015.54 1015.79 1016.03 1016.20 1016.19 1016.26 1016.34 1016.52 1016.69 1016.79 1016.89 1017.08 1017.23 1017.38 1017.56 1017.64 1017.65 1017.73 1017.81 1017.86 1018.02 1018.00 1017.96 1017.93 1018.08 1018.20 1018.42 1017.91 1017.62 1017.38 1017.20 1017.23 1017.06 1016.88 1016.93 1017.02 1017.08
1012.33 1013.30 1013.65 1014.13 1014.50 1014.80 1015.25 1015.51 1015.71 1015.99 1016.08 1016.05 1016.16 1016.28 1016.40 1016.50 1016.60 1016.78 1017.00 1017.05 1017.22 1017.34 1017.32 1017.41 1017.51 1017.60 1017.72 1017.68 1017.74 1017.72 1017.72 1017.71 1017.86 1017.95 1017.80 1017.55 1017.38 1017.33 1017.19 1017.21 1017.09 1017.33 1017.39
1012.13 1012.67 1013.37 1013.67 1014.14 1014.44 1014.73 1015.09 1015.40 1015.59 1015.64 1015.85 1016.06 1016.18 1016.27 1016.31 1016.41 1016.47 1016.54 1016.57 1016.77 1016.93 1017.06 1017.28 1017.37 1017.45 1017.48 1017.43 1017.43 1017.36 1017.34 1017.37 1017.53 1017.72 1017.77 1017.50 1017.27 1017.23 1017.34 1017.27 1017.48 1017.62 1017.67
1011.88 1012.38 1012.77 1013.23 1013.29 1013.70 1014.19 1014.60 1014.89 1015.18 1015.49 1015.62 1015.75 1015.86 1016.02 1016.15 1016.28 1016.23 1016.31 1016.47 1016.65 1016.73 1016.91 1017.01 1016.99 1017.03 1017.09 1017.11 1017.13 1017.10 1017.04 1017.27 1017.49 1017.63 1017.68 1017.50 1017.25 1016.85 1016.88 1017.05 1017.19 1017.30 1017.58
1011.68 1012.42 1013.15 1013.15 1013.23 1013.30 1013.73 1014.06 1014.37 1014.81 1015.10 1015.16 1015.44 1015.72 1015.77 1016.09 1016.23 1016.31 1016.27 1016.36 1016.51 1016.59 1016.65 1016.65 1016.63 1016.63 1016.65 1016.66 1016.78 1016.66 1016.86 1016.97 1017.10 1017.33 1017.45 1017.33 1017.18 1016.90 1016.80 1016.74 1016.81 1016.81 1017.20
1011.01 1011.43 1012.36 1012.95 1013.77 1013.07 1013.07 1013.39 1013.66 1014.09 1014.71 1015.12 1015.33 1015.48 1015.84 1016.16 1016.29 1016.17 1016.09 1016.23 1016.36 1016.46 1016.59 1016.62 1016.65 1016.75 1016.87 1016.84 1016.69 1016.69 1016.54 1016.75 1016.79 1016.94 1017.04 1017.09 1016.91 1016.84 1016.72 1016.65 1016.66 1016.79 1016.97
1010.21 1009.86 1011.01 1013.25 1013.25 1013.41 1012.70 1013.17 1013.35 1013.56 1014.13 1014.47 1015.18 1015.72 1016.25 1016.67 1016.76 1016.63 1016.56 1016.53 1016.58 1016.69 1016.81 1016.87 1016.96 1017.06 1017.05 1017.05 1017.04 1016.94 1016.79 1016.76 1016.76 1016.87 1016.89 1016.88 1016.79 1016.76 1016.81 1016.59 1016.51 1016.39 1016.26
1010.38 1010.07 1010.06 1011.41 1012.44 1012.42 1012.39 1012.55 1013.12 1013.34 1013.82 1014.63 1015.14 1015.92 1016.46 1017.00 1016.94 1016.74 1016.93 1016.93 1016.86 1017.02 1017.16 1017.15 1017.31 1017.53 1017.45 1017.32 1017.27 1017.16 1017.22 1017.09 1017.17 1017.02 1016.94 1016.71 1016.71 1016.64 1016.80 1016.63 1016.59 1016.44 1016.52
1009.29 1009.88 1010.35 1012.04 1011.27 1011.45 1011.77 1012.13 1012.52 1013.24 1013.87 1014.78 1015.69 1016.24 1016.72 1017.26 1017.04 1016.64 1016.88 1016.98 1017.16 1017.42 1017.64 1017.66 1017.68 1017.87 1017.80 1017.58 1017.44 1017.48 1017.45 1017.31 1017.10 1017.22 1017.25 1016.93 1017.06 1016.84 1016.53 1016.44 1016.62 1016.62 1016.64
1008.58 1009.52 1010.12 1011.10 1010.64 1011.50 1011.81 1012.50 1013.01 1013.51 1014.20 1015.13 1016.25 1016.97 1017.00 1017.32 1016.87 1016.81 1016.87 1017.06 1017.30 1017.84 1018.04 1017.98 1018.06 1018.13 1018.19 1017.98 1017.64 1017.65 1017.62 1017.61 1017.41 1017.19 1017.29 1017.09 1017.31 1016.98 1017.14 1016.66 1017.02 1016.99 1017.03
1008.47 1008.86 1009.40 1010.07 1010.38 1010.08 1012.30 1012.89 1013.68 1014.66 1015.26 1015.50 1016.34 1016.98 1016.91 1017.21 1017.45 1017.29 1017.54 1017.36 1017.42 1017.85 1018.18 1018.32 1018.28 1018.15 1018.07 1018.09 1017.83 1017.58 1017.48 1017.60 1017.38 1017.26 1017.11 1017.16 1017.31 1017.26 1017.44 1017.49 1017.47 1017.47 1017.44
1008.99 1009.48 1009.67 1010.44 1011.36 1011.83 1012.50 1012.85 1013.03 1014.23 1015.80 1016.49 1016.50 1017.32 1017.55 1017.81 1017.93 1017.70 1018.24 1018.12 1017.93 1017.97 1018.36 1018.50 1018.37 1018.15 1018.02 1018.09 1017.95 1017.72 1017.58 1017.44 1017.31 1017.22 1017.09 1017.02 1017.16 1017.49 1017.79 1017.76 1017.72 1017.84 1017.74
1011.05 1010.87 1010.59 1011.01 1011.86 1012.34 1013.43 1014.37 1014.79 1015.58 1015.78 1016.89 1016.90 1017.66 1017.71 1018.24 1018.04 1018.65 1018.43 1018.69 1018.62 1018.53 1018.60 1018.65 1018.31 1018.24 1018.02 1017.96 1017.91 1017.85 1017.76 1017.73 1017.44 1017.26 1017.29 1017.43 1017.43 1017.61 1017.67 1017.79 1017.70 1017.61 1017.47
1012.50 1012.93 1013.25 1012.62 1013.03 1013.51 1014.17 1014.84 1015.47 1016.34 1016.99 1017.43 1017.88 1017.84 1018.26 1018.83 1018.78 1018.77 1018.84 1019.06 1019.09 1018.79 1018.60 1018.57 1018.42 1018.25 1018.04 1018.01 1017.99 1017.89 1017.90 1017.96 1017.85 1017.81 1017.95 1017.84 1017.92 1017.82 1017.86 1017.94 1017.99 1018.01 1018.02
1012.78 1013.53 1013.91 1013.72 1014.84 1015.21 1016.14 1016.14 1016.59 1016.74 1017.28 1017.61 1017.78 1017.91 1018.31 1018.76 1018.82 1018.63 1018.84 1019.19 1019.25 1019.03 1018.83 1018.85 1018.68 1018.55 1018.43 1018.21 1017.91 1017.73 1017.84 1018.03 1018.17 1018.16 1018.30 1018.39 1018.20 1018.13 1018.12 1018.11 1018.31 1018.39 1018.34
1014.00 1014.07 1014.60 1015.15 1015.65 1016.15 1016.87 1017.53 1017.46 1017.27 1017.31 1017.46 1017.69 1017.87 1018.52 1018.71 1019.12 1019.25 1019.25 1019.26 1019.21 1019.14 1019.17 1019.26 1019.14 1018.96 1018.75 1018.62 1018.39 1018.14 1018.08 1018.17 1018.20 1018.16 1018.30 1018.43 1018.52 1018.59 1018.57 1018.55 1018.48 1018.73 1018.73
1014.46 1014.86 1015.26 1015.70 1016.05 1016.62 1016.84 1017.67 1018.04 1018.31 1018.05 1018.12 1018.24 1018.47 1018.66 1018.95 1019.30 1019.48 1019.39 1019.38 1019.45 1019.38 1019.43 1019.41 1019.27 1019.03 1018.85 1018.84 1018.75 1018.48 1018.23 1018.31 1018.33 1018.36 1018.55 1018.66 1018.59 1018.72 1018.80 1018.81 1018.73 1018.68 1018.59
1014.92 1015.29 1015.55 1016.02 1016.26 1016.41 1016.78 1017.21 1017.67 1018.12 1018.60 1018.85 1018.89 1018.97 1018.96 1019.27 1019.55 1019.57 1019.43 1019.57 1019.80 1019.72 1019.55 1019.44 1019.39 1019.23 1019.09 1019.09 1018.95 1018.70 1018.45 1018.48 1018.59 1018.67 1018.65 1018.70 1018.72 1018.93 1019.04 1019.08 1019.03 1018.88 1018.76
1015.29 1015.69 1015.82 1016.09 1016.26 1016.66 1016.83 1017.24 1017.88 1018.13 1018.46 1018.79 1019.13 1019.10 1019.19 1019.42 1019.63 1019.73 1019.75 1019.85 1019.97 1019.83 1019.64 1019.59 1019.38 1019.24 1019.04 1019.08 1019.11 1018.79 1018.57 1018.60 1018.54 1018.63 1018.65 1018.60 1018.62 1018.77 1018.96 1018.96 1019.01 1018.98 1018.83
1015.43 1015.68 1016.13 1016.38 1016.44 1016.90 1017.00 1017.33 1017.82 1018.17 1018.48 1018.61 1018.87 1019.11 1019.61 1019.70 1019.83 1019.95 1019.94 1020.07 1019.92 1019.86 1019.78 1019.65 1019.36 1019.09 1018.98 1018.94 1018.78 1018.76 1018.58 1018.67 1018.74 1018.82 1018.91 1018.98 1018.87 1018.94 1019.20 1019.03 1018.91 1018.80 1018.66
1015.79 1016.08 1016.30 1016.75 1016.59 1016.89 1017.16 1017.50 1017.59 1017.89 1018.04 1018.64 1018.52 1018.68 1019.29 1020.04 1020.42 1020.07 1019.68 1019.64 1019.66 1019.80 1019.84 1019.76 1019.63 1019.27 1019.07 1018.90 1018.79 1018.79 1018.74 1018.76 1018.68 1018.67 1018.78 1018.69 1018.45 1018.58 1018.17 1018.50 1018.56 1018.75 1018.70
1015.85 1016.30 1016.57 1016.84 1016.92 1017.18 1017.52 1017.70 1017.65 1017.82 1018.21 1018.81 1018.91 1019.61 1019.90 1020.13 1020.02 1019.93 1019.93 1019.91 1020.02 1020.05 1019.91 1019.91 1019.90 1019.87 1019.71 1019.52 1019.28 1019.10 1019.00 1018.95 1018.91 1018.74 1018.60 1018.58 1018.51 1018.32 1018.19 1018.50 1018.75 1018.81 1018.68
1015.74 1016.25 1016.85 1016.98 1017.35 1017.60 1017.70 1018.00 1018.19 1018.53 1018.77 1019.06 1019.19 1019.53 1019.77 1020.32 1020.45 1020.57 1020.51 1020.45 1020.46 1020.48 1020.39 1020.13 1020.08 1020.20 1019.93 1019.68 1019.39 1019.24 1019.18 1018.98 1018.85 1018.69 1018.48 1018.57 1018.50 1018.43 1018.55 1018.80 1018.68 1018.47 1018.48
1015.67 1016.29 1016.84 1017.35 1017.44 1017.95 1018.35 1018.77 1019.19 1019.34 1019.47 1019.66 1020.00 1020.37 1020.45 1020.76 1020.79 1020.85 1020.73 1020.68 1020.38 1020.47 1020.48 1020.52 1020.54 1020.52 1020.26 1020.01 1019.58 1019.27 1019.03 1018.93 1018.85 1018.81 1018.68 1018.61 1018.57 1018.67 1018.84 1018.60 1018.52 1018.64 1018.68
1015.58 1016.16 1016.99 1017.56 1018.03 1018.29 1018.78 1019.26 1019.36 1019.69 1020.00 1020.13 1020.80 1020.88 1020.98 1021.00 1021.01 1020.96 1020.91 1020.73 1020.71 1020.79 1020.69 1020.49 1020.39 1020.35 1020.13 1019.80 1019.67 1019.52 1019.33 1018.88 1018.63 1018.71 1018.85 1019.02 1019.22 1019.26 1019.26 1019.26 1019.20 1019.24 1018.97
1015.77 1016.43 1017.14 1017.61 1017.92 1018.23 1018.96 1019.26 1019.42 1019.71 1020.13 1020.73 1021.08 1020.97 1020.90 1020.95 1020.99 1020.97 1020.96 1020.80 1020.75 1020.54 1020.39 1020.37 1020.23 1020.22 1020.22 1020.10 1020.00 1019.80 1019.64 1019.52 1019.42 1019.31 1019.29 1019.44 1019.58 1019.62 1019.60 1019.55 1019.73 1019.58 1019.52
Wind_Speed
14 12 11 10 10 7 7 6 7 5 6 7 6 6 6 6 6 5 5 5 5 4 3 4 6 2 3 3 1 1 1 3 3 3 2 1 1 3 3 3 3 4 3
15 12 12 10 10 9 8 7 7 7 6 7 6 6 6 6 6 6 6 5 5 5 5 4 5 3 4 4 3 3 2 2 3 3 1 2 3 2 1 2 2 3 3
12 13 11 12 11 11 9 8 7 7 7 6 6 6 6 6 6 6 6 6 5 5 5 5 6 5 5 3 3 3 3 2 2 2 3 2 4 2 2 1 2 3 3
10 12 12 12 13 12 10 10 9 7 7 7 6 6 6 5 5 5 5 6 5 5 5 5 6 5 5 5 4 5 3 3 2 2 3 3 3 2 2 2 3 2 2
7 4 3 6 9 10 10 11 10 9 9 7 6 6 6 5 4 6 5 6 5 3 3 3 3 3 1 2 2 3 3 3 3 3 2 1 2 2 1 1 2 1 2
8 8 3 4 8 11 11 11 10 9 7 6 6 6 6 3 3 6 5 5 4 2 1 3 1 4 1 2 3 4 3 3 3 3 2 3 3 2 2 1 2 2 3
10 10 6 7 6 13 10 9 10 10 8 8 6 6 6 4 3 3 2 3 4 3 3 4 4 4 3 3 2 2 5 6 3 1 2 3 2 2 1 2 1 1 2
8 8 9 9 13 15 10 9 7 5 6 5 7 8 7 4 4 3 2 3 4 5 4 4 5 4 5 4 3 0 2 3 4 2 1 1 1 1 1 2 2 3 2
10 10 12 5 15 13 10 7 6 7 8 8 7 8 8 3 5 1 3 3 4 6 5 5 5 5 9 9 4 4 3 2 3 7 8 6 6 5 3 0 2 2 2
12 11 11 2 5 6 7 7 4 9 10 8 8 7 9 4 10 10 5 3 6 5 4 5 9 5 3 4 4 3 4 3 5 4 4 3 2 4 7 5 1 2 0
10 11 14 16 8 12 7 8 10 9 9 9 9 6 7 6 7 13 10 4 3 5 3 2 1 3 4 3 0 2 2 2 3 3 3 3 2 2 3 3 4 1 0
12 10 12 10 8 8 12 9 8 11 11 6 9 6 5 5 6 11 9 7 6 4 3 1 3 6 7 6 5 3 3 1 2 3 2 1 2 3 1 2 3 3 3
10 12 14 13 12 11 11 8 8 8 9 5 6 4 6 3 5 3 8 6 5 3 2 5 6 5 3 4 5 3 3 2 2 4 3 3 2 2 3 1 1 2 3
8 7 6 10 11 9 8 7 7 5 5 5 5 5 5 2 3 3 3 4 6 4 5 5 4 4 3 3 3 4 3 2 2 2 2 1 1 1 1 1 1 2 2
10 7 6 8 8 9 7 5 4 3 3 5 3 4 5 3 2 4 4 2 2 3 3 2 4 4 4 4 4 3 2 3 3 2 2 2 2 2 1 1 1 1 0
7 7 6 6 5 6 6 5 11 8 9 9 10 6 3 7 7 5 4 2 2 6 4 3 3 3 3 4 4 4 2 1 2 2 1 1 1 1 2 2 1 1 2
8 6 6 5 5 6 6 5 6 5 11 11 10 7 4 8 6 3 2 4 5 2 3 2 2 3 3 3 3 2 2 2 0 2 2 1 1 0 1 1 1 1 3
6 7 5 4 4 5 5 5 4 5 4 2 6 5 5 5 3 3 6 3 3 2 1 1 1 1 1 2 3 3 3 2 2 1 1 0 1 0 1 2 2 2 2
5 3 4 4 4 4 4 5 4 4 4 4 1 3 3 3 2 2 5 1 1 1 1 1 2 2 2 2 2 2 1 2 2 2 2 1 1 1 1 1 2 3 2
5 7 4 3 4 4 4 4 4 4 4 4 3 2 3 2 0 1 2 1 1 2 3 3 3 2 2 3 3 2 1 0 1 1 2 2 2 1 2 2 1 1 2
4 4 5 2 3 4 4 5 4 4 4 4 4 3 4 4 3 3 1 2 2 4 4 4 3 4 4 4 4 3 1 2 2 3 3 3 4 4 4 4 2 3 3
4 3 4 4 3 4 3 3 4 4 4 4 3 5 9 2 4 5 5 5 4 4 3 4 4 4 4 4 4 3 2 1 2 2 3 3 3 4 2 2 2 2 2
4 5 4 4 3 5 6 7 7 8 8 8 7 8 8 5 5 4 4 4 4 4 3 3 4 4 4 4 3 2 2 4 3 2 1 2 2 2 2 1 1 3 3
4 6 6 4 5 7 7 6 6 8 8 7 7 6 5 4 4 4 4 3 4 4 3 4 4 4 3 4 3 3 3 4 3 3 3 2 3 3 3 3 4 6 3
5 6 6 5 8 7 7 5 6 6 6 6 5 4 4 4 4 3 2 2 3 3 3 3 3 2 4 6 7 7 8 10 3 2 3 5 6 6 5 5 5 6 4
6 6 6 6 6 6 6 6 5 5 6 5 4 4 4 4 3 3 2 3 3 2 2 1 3 3 3 3 5 7 7 10 7 8 4 4 5 5 4 5 4 2 5
Wind_Direction
191 187 195 194 189 185 188 214 200 189 183 180 185 192 198 207 214 205 205 201 205 236 241 224 250 250 277 262 234 233 187 186 184 283 241 281 317 18 356 64 123 109 95
192 189 188 193 193 187 193 204 184 198 194 183 190 200 208 210 214 204 216 213 213 238 254 255 261 257 269 271 221 233 205 205 160 246 275 287 245 178 157 94 68 85 70
189 186 190 189 191 200 194 200 201 206 208 197 187 198 207 211 210 218 216 213 219 224 228 226 239 225 256 255 235 236 217 214 213 205 252 244 255 191 198 173 132 91 84
187 188 189 198 196 197 194 199 201 202 205 209 201 207 211 208 217 223 218 228 209 217 226 227 233 236 240 247 230 229 216 198 191 199 237 255 239 245 183 182 202 165 159
124 112 275 244 209 196 194 199 196 192 206 202 191 209 201 180 186 200 216 212 196 219 255 256 243 250 171 227 248 251 201 209 204 206 235 250 274 306 255 218 232 159 151
143 134 91 34 292 218 205 200 190 187 195 197 195 197 156 123 160 161 138 132 116 98 270 338 22 94 16 348 343 305 231 205 212 189 210 221 256 258 294 267 175 168 225
221 175 169 227 267 252 208 198 190 182 180 177 149 129 110 98 3 358 109 125 124 130 92 64 83 50 32 40 55 39 62 59 54 214 218 224 241 210 283 303 302 249 238
199 200 192 267 278 239 198 189 189 172 171 153 145 124 110 63 15 9 227 157 129 99 92 87 104 81 36 17 349 42 41 33 6 356 294 249 251 155 287 295 296 293 49
174 183 167 238 245 215 185 168 149 134 116 117 122 115 112 81 349 72 159 134 105 84 64 48 75 59 18 10 43 30 352 2 25 355 342 351 352 347 338 324 320 358 337
189 186 190 183 160 139 120 121 98 106 108 109 103 109 117 103 37 41 85 129 124 96 74 87 84 96 49 27 67 57 10 21 353 331 315 333 286 4 8 49 7 23 113
187 180 169 171 151 106 113 119 111 103 96 99 104 95 96 91 60 47 16 67 99 129 128 111 90 33 30 347 263 132 173 290 290 294 287 291 168 176 23 12 10 349 190
37 60 95 92 91 103 99 94 116 113 106 96 106 97 72 76 74 79 60 31 74 98 91 334 311 343 352 339 328 337 330 305 333 341 343 332 169 178 129 15 33 1 350
49 58 64 73 84 73 85 82 81 78 90 112 84 112 108 119 95 92 100 88 43 47 15 317 319 304 309 335 352 349 0 3 31 46 48 48 65 149 157 152 333 313 304
80 65 84 90 79 84 90 80 84 89 94 116 127 99 75 82 109 99 66 34 8 32 12 332 301 293 298 266 336 20 15 16 37 45 69 88 349 47 30 18 5 343 348
107 87 74 70 82 76 49 66 103 74 141 134 111 128 128 123 135 98 81 65 9 320 310 12 17 10 7 3 6 5 45 16 27 31 28 16 26 22 332 347 335 320 351
88 95 93 92 85 97 96 77 41 64 67 83 116 115 58 95 116 117 126 95 350 350 52 43 11 1 32 12 0 351 343 279 209 156 113 91 54 342 325 334 344 316 297
107 105 105 113 124 125 116 120 109 36 59 55 62 93 118 153 157 168 72 31 43 0 67 40 38 35 49 61 37 11 305 342 291 97 107 103 105 45 30 315 326 282 295
100 110 116 130 126 125 126 123 126 128 121 93 37 42 85 120 126 43 9 6 35 30 108 86 60 38 31 41 18 3 346 24 47 51 54 93 357 304 2 334 315 297 306
120 124 137 141 138 133 122 120 118 121 126 122 74 18 48 44 27 355 349 92 181 280 301 336 329 310 316 334 344 8 35 186 195 180 182 157 158 124 128 343 323 297 287
126 134 111 121 116 118 138 150 146 139 147 152 153 190 146 171 26 257 217 228 323 328 332 338 337 360 347 324 330 302 216 132 324 326 339 13 358 92 261 248 242 285 266
105 104 128 135 153 162 165 186 191 149 168 163 194 204 131 72 323 285 330 83 70 60 63 71 49 39 24 21 11 348 359 168 162 182 202 194 194 223 191 249 294 284 269
128 119 125 122 119 102 104 133 105 101 99 114 69 77 106 64 68 54 56 59 65 66 71 75 52 39 26 20 3 13 9 192 209 225 231 256 287 339 355 304 325 308 290
92 124 124 101 105 91 73 85 84 83 80 74 79 85 87 77 68 62 59 58 53 57 62 74 70 42 21 8 6 22 300 273 260 247 174 111 53 101 90 62 35 29 2
120 144 128 113 90 99 96 91 93 90 88 80 80 83 87 93 86 75 71 57 50 53 85 74 67 56 7 355 348 352 341 309 297 276 205 114 88 73 34 16 51 13 313
117 126 123 124 122 120 111 110 103 103 101 99 100 100 106 110 107 99 85 62 58 67 76 139 118 81 44 27 9 1 356 354 228 118 83 65 62 67 60 38 27 337 333
127 130 129 125 114 116 124 120 111 106 104 116 125 115 113 97 86 73 40 30 18 21 32 107 151 124 81 47 35 38 39 25 41 37 72 88 74 58 58 66 14 0 26